This demonstration page uses our WeatherBlox Daily Observations layout. Learn more.

Left ArrowRight Arrow

38.20091, -84.87328

Hourly Observations for August 18, 2017

Temp ( °F °C ) Dew Point ( °F °C ) Humidity (%) Winds ( mph kmh ) Pressure ( in mb ) Visibility ( mi km ) Precip ( " mm )
12:43 am 00:43 Cloudy 75 23.9 71 21.7 88 88 S 8 13 29.88 1012 10 16 0.01 0.25
12:53 am 00:53 Cloudy 75 23.9 72 22.2 90 90 S 6 9 29.86 1011 10 16 0.01 0.25
1:02 am 01:02 Cloudy 74 23.3 71 21.7 91 91 S 6 9 29.85 1011 10 16 0.00 0.00
1:17 am 01:17 Cloudy 74 23.3 71 21.7 91 91 SSW 7 11 29.85 1011 10 16 0.00 0.00
1:28 am 01:28 Mostly Cloudy 74 23.3 71 21.7 91 91 SSW 7 11 29.85 1011 10 16 0.00 0.00
1:44 am 01:44 Partly Cloudy 74 23.3 71 21.7 91 91 SSW 5 7 29.85 1011 10 16 0.00 0.00
1:53 am 01:53 Partly Cloudy 74 23.3 71 21.7 91 91 S 7 11 29.84 1011 10 16 0.00 0.00
1:56 am 01:56 Mostly Cloudy 74 23.3 71 21.7 91 91 SSW 6 9 29.85 1011 10 16 0.00 0.00
2:05 am 02:05 Mostly Cloudy 74 23.3 71 21.7 91 91 SSW 6 9 29.85 1011 10 16 0.00 0.00
2:13 am 02:13 Mostly Cloudy 74 23.3 71 21.7 91 91 SSW 7 11 29.85 1011 10 16 0.00 0.00
2:21 am 02:21 Cloudy 74 23.3 71 21.7 91 91 SSW 8 13 29.85 1011 10 16 0.00 0.00
2:53 am 02:53 Cloudy 74 23.3 71 21.7 91 91 SSW 6 9 29.83 1010 10 16 0.00 0.00
3:33 am 03:33 Mostly Cloudy 74 23.3 71 21.7 91 91 SW 3 6 29.85 1011 9 14 0.00 0.00
3:53 am 03:53 Cloudy 74 23.3 71 21.7 91 91 WSW 5 7 29.84 1010 9 14 0.00 0.00
4:14 am 04:14 Cloudy 74 23.3 71 21.7 91 91 WSW 5 7 29.83 1010 9 14 0.00 0.00
4:39 am 04:39 Cloudy 74 23.3 72 22.2 94 94 SW 7 11 29.85 1011 9 14 0.00 0.00
4:53 am 04:53 Cloudy 74 23.3 71 21.7 91 91 WSW 6 9 29.84 1011 8 13 0.00 0.00
5:13 am 05:13 Cloudy 74 23.3 71 21.7 91 91 WSW 5 7 29.85 1011 8 13 0.00 0.00
5:32 am 05:32 Cloudy 74 23.3 72 22.2 94 94 WSW 3 6 29.85 1011 8 13 0.00 0.00
5:49 am 05:49 Cloudy 73 23 72 22 94 94 W 3 6 29.85 1011 7 11 0.00 0.00
5:53 am 05:53 Cloudy 75 23.9 72 22.2 90 90 W 5 7 29.86 1011 8 13 0.00 0.00
6:14 am 06:14 Cloudy 75 23.9 71 21.7 88 88 W 6 9 29.88 1012 8 13 0.00 0.00
6:23 am 06:23 Cloudy 75 23.9 71 21.7 88 88 Calm 29.88 1012 8 13 0.00 0.00
6:53 am 06:53 Cloudy 74 23.3 71 21.7 91 91 WSW 6 9 29.87 1012 8 13 0.00 0.00
7:53 am 07:53 Partly Cloudy 74 23.3 70 21.1 88 88 W 3 6 29.88 1012 7 11 0.00 0.00
8:06 am 08:06 Mostly Cloudy 74 23.3 71 21.7 91 91 W 3 6 29.88 1012 7 11 0.00 0.00
8:24 am 08:24 Partly Cloudy 74 23.3 71 21.7 91 91 W 6 9 29.88 1012 9 14 0.00 0.00
8:53 am 08:53 Mostly Sunny 76 24.4 71 21.7 85 85 W 6 9 29.89 1012 10 16 0.00 0.00
9:53 am 09:53 Mostly Cloudy 78 25.6 69 20.6 74 74 VRB 6 9 29.90 1013 10 16 0.00 0.00
10:53 am 10:53 Mostly Sunny 80 26.7 68 20 67 67 WNW 7 11 29.91 1013 10 16 0.00 0.00
11:53 am 11:53 Mostly Sunny 82 27.8 66 18.9 58 58 WSW 7 11 29.91 1013 10 16 0.00 0.00
12:53 pm 12:53 Mostly Cloudy 83 28.3 63 17.2 51 51 WSW 10 17 29.92 1013 10 16 0.00 0.00
1:53 pm 13:53 Mostly Sunny 84 28.9 62 16.7 48 48 WSW 10 17 29.92 1013 10 16 0.00 0.00
2:53 pm 14:53 Mostly Sunny 84 28.9 63 17.2 49 49 WSW 10 17 29.91 1013 10 16 0.00 0.00
3:53 pm 15:53 Mostly Cloudy 83 28.3 61 16.1 48 48 WSW 8 13 29.90 1013 10 16 0.00 0.00
4:53 pm 16:53 Partly Cloudy 85 29.4 61 16.1 45 45 W 12 19 29.89 1012 10 16 0.00 0.00
5:53 pm 17:53 Mostly Sunny 85 29.4 60 15.6 43 43 WNW 8 13 29.89 1012 10 16 0.00 0.00
6:53 pm 18:53 Sunny 84 28.9 60 15.6 44 44 WNW 8 13 29.90 1012 10 16 0.00 0.00
7:53 pm 19:53 Sunny 81 27.2 63 17.2 54 54 W 3 6 29.91 1013 10 16 0.00 0.00
8:53 pm 20:53 Clear 76 24.4 64 17.8 67 67 WSW 3 6 29.91 1013 10 16 0.00 0.00
9:53 pm 21:53 Clear 73 22.8 64 17.8 74 74 WSW 5 7 29.93 1013 10 16 0.00 0.00
10:53 pm 22:53 Clear 74 23.3 64 17.8 71 71 WSW 5 7 29.93 1014 10 16 0.00 0.00
11:53 pm 23:53 Clear 70 21.1 64 17.8 82 82 SW 3 6 29.92 1013 10 16 0.00 0.00

Powered by AerisWeather